Volver al catálogo

DELTA 1 DEB

ActivoPO
NORAD 12427·DEBRIS·🇺🇸 United States

Lanzado Mar 5, 1978 desde Vandenberg Space Force Base

Loading…

Próximos Pases (próximas 24 horas)

TLE

ActualizadoSource: Space-Track

Época: Sep 14, 2026, 11:53 UTC

1 12427U 78026ET  26257.49524063  .00001561  00000-0  43990-3 0  9995
2 12427  99.1589  90.4545 0100372  48.3632 334.2577 14.44486843384793

Sigue DELTA 1 DEB en tiempo real con AllMySat

Download on the App Store